timestamp,wind_dir_avg,wind_spd_max_dir,wind_spd_avg,wind_spd_gust,battery_voltage,lat,long
2018-07-20 00:00:00+00:00,238.0,232.0,6.25,7.22,,47.59359,-54.27349
2018-07-20 00:10:00+00:00,228.0,228.0,6.36,7.29,,47.59359,-54.27349
2018-07-20 00:20:00+00:00,227.0,226.0,5.45,5.9,,47.59359,-54.27349
2018-07-20 00:30:00+00:00,231.0,229.0,5.81,6.27,,47.59359,-54.27349
2018-07-20 00:40:00+00:00,222.0,227.0,4.06,4.66,,47.59359,-54.27349
2018-07-20 00:50:00+00:00,201.0,202.0,6.37,6.68,,47.59359,-54.27349
2018-07-20 01:00:00+00:00,201.0,200.0,6.93,7.53,,47.59359,-54.27349
2018-07-20 01:10:00+00:00,202.0,201.0,5.34,5.55,,47.59359,-54.27349
2018-07-20 01:20:00+00:00,216.0,203.0,5.15,7.56,,47.59359,-54.27349
2018-07-20 01:30:00+00:00,206.0,201.0,4.99,6.82,,47.59359,-54.27349
2018-07-20 01:40:00+00:00,203.0,196.0,3.89,5.67,,47.59359,-54.27349
2018-07-20 01:50:00+00:00,192.0,192.0,4.13,4.6,,47.59359,-54.27349
2018-07-20 02:00:00+00:00,208.0,208.0,5.11,5.52,,47.59359,-54.27349
2018-07-20 02:10:00+00:00,207.0,204.0,5.4,6.88,,47.59359,-54.27349
2018-07-20 02:20:00+00:00,215.0,214.0,7.33,8.69,,47.59359,-54.27349
2018-07-20 02:30:00+00:00,223.0,213.0,4.98,7.67,,47.59359,-54.27349
2018-07-20 02:40:00+00:00,222.0,225.0,5.35,5.93,,47.59359,-54.27349
2018-07-20 02:50:00+00:00,249.0,232.0,3.87,4.48,,47.59359,-54.27349
2018-07-20 03:00:00+00:00,222.0,222.0,5.16,5.6,,47.59359,-54.27349
2018-07-20 03:20:00+00:00,255.0,253.0,5.04,5.91,,47.59359,-54.27349
2018-07-20 03:30:00+00:00,247.0,250.0,3.1,3.4,,47.59359,-54.27349
2018-07-20 03:40:00+00:00,217.0,215.0,2.08,2.3,,47.59359,-54.27349
2018-07-20 03:50:00+00:00,190.0,188.0,2.23,2.44,,47.59359,-54.27349
2018-07-20 04:00:00+00:00,208.0,201.0,2.67,2.99,,47.59359,-54.27349
2018-07-20 04:10:00+00:00,221.0,223.0,4.32,4.63,,47.59359,-54.27349
2018-07-20 04:20:00+00:00,205.0,211.0,3.12,3.26,,47.59359,-54.27349
2018-07-20 04:30:00+00:00,212.0,215.0,3.98,4.59,,47.59359,-54.27349
2018-07-20 04:40:00+00:00,209.0,209.0,4.33,4.71,,47.59359,-54.27349
2018-07-20 04:50:00+00:00,218.0,216.0,3.37,3.7,,47.59359,-54.27349
2018-07-20 05:00:00+00:00,208.0,210.0,4.29,4.66,,47.59359,-54.27349
2018-07-20 05:10:00+00:00,214.0,214.0,5.88,6.22,,47.59359,-54.27349
2018-07-20 05:20:00+00:00,228.0,232.0,5.28,5.61,,47.59359,-54.27349
2018-07-20 05:30:00+00:00,231.0,228.0,4.76,5.34,,47.59359,-54.27349
2018-07-20 05:40:00+00:00,223.0,223.0,5.5,6.18,,47.59359,-54.27349
2018-07-20 05:50:00+00:00,214.0,214.0,6.07,6.49,,47.59359,-54.27349
2018-07-20 06:00:00+00:00,224.0,227.0,5.72,6.23,,47.59359,-54.27349
2018-07-20 06:10:00+00:00,218.0,217.0,4.98,5.32,,47.59359,-54.27349
2018-07-20 06:20:00+00:00,216.0,216.0,4.5,5.2,,47.59359,-54.27349
2018-07-20 06:30:00+00:00,231.0,233.0,6.8,7.33,,47.59359,-54.27349
2018-07-20 06:40:00+00:00,250.0,254.0,5.44,6.0,,47.59359,-54.27349
2018-07-20 06:50:00+00:00,258.0,259.0,4.75,5.15,,47.59359,-54.27349
2018-07-20 07:00:00+00:00,255.0,252.0,4.23,4.53,,47.59359,-54.27349
2018-07-20 07:10:00+00:00,263.0,265.0,3.71,3.92,,47.59359,-54.27349
2018-07-20 07:20:00+00:00,234.0,229.0,3.4,3.77,,47.59359,-54.27349
2018-07-20 07:30:00+00:00,202.0,205.0,1.95,2.27,,47.59359,-54.27349
2018-07-20 07:40:00+00:00,217.0,218.0,4.58,4.91,,47.59359,-54.27349
2018-07-20 07:50:00+00:00,221.0,225.0,5.05,5.59,,47.59359,-54.27349
2018-07-20 08:00:00+00:00,229.0,229.0,4.67,5.0,,47.59359,-54.27349
2018-07-20 08:10:00+00:00,228.0,227.0,3.66,3.99,,47.59359,-54.27349
2018-07-20 08:20:00+00:00,206.0,203.0,3.18,3.43,,47.59359,-54.27349
2018-07-20 08:30:00+00:00,208.0,211.0,3.27,3.47,,47.59359,-54.27349
2018-07-20 08:40:00+00:00,222.0,226.0,3.58,3.79,,47.59359,-54.27349
2018-07-20 08:50:00+00:00,220.0,218.0,2.14,2.4,,47.59359,-54.27349
2018-07-20 09:00:00+00:00,234.0,235.0,1.74,1.89,,47.59359,-54.27349
2018-07-20 09:10:00+00:00,230.0,231.0,0.83,0.95,,47.59359,-54.27349
2018-07-20 09:20:00+00:00,218.0,219.0,1.98,2.17,,47.59359,-54.27349
2018-07-20 09:30:00+00:00,202.0,193.0,3.9,6.63,,47.59359,-54.27349
2018-07-20 10:00:00+00:00,227.0,232.0,1.33,1.46,,47.59359,-54.27349
2018-07-20 10:10:00+00:00,232.0,234.0,2.34,2.48,,47.59359,-54.27349
2018-07-20 10:20:00+00:00,219.0,220.0,2.35,2.53,,47.59359,-54.27349
2018-07-20 10:30:00+00:00,246.0,242.0,1.57,1.9,,47.59359,-54.27349
2018-07-20 10:40:00+00:00,241.0,242.0,1.91,2.07,,47.59359,-54.27349
2018-07-20 10:50:00+00:00,226.0,227.0,1.93,2.13,,47.59359,-54.27349
2018-07-20 11:00:00+00:00,225.0,225.0,2.52,2.71,,47.59359,-54.27349
2018-07-20 11:10:00+00:00,212.0,213.0,1.76,1.83,,47.59359,-54.27349
2018-07-20 11:20:00+00:00,207.0,210.0,2.48,2.65,,47.59359,-54.27349
2018-07-20 11:30:00+00:00,218.0,215.0,3.24,3.81,,47.59359,-54.27349
2018-07-20 11:40:00+00:00,213.0,212.0,3.21,3.64,,47.59359,-54.27349
2018-07-20 11:50:00+00:00,219.0,221.0,3.0,3.19,,47.59359,-54.27349
2018-07-20 12:00:00+00:00,216.0,218.0,3.47,3.64,,47.59359,-54.27349
2018-07-20 12:10:00+00:00,232.0,233.0,3.11,3.43,,47.59359,-54.27349
2018-07-20 12:20:00+00:00,230.0,232.0,2.94,3.36,,47.59359,-54.27349
2018-07-20 12:30:00+00:00,235.0,231.0,2.77,3.16,,47.59359,-54.27349
2018-07-20 12:40:00+00:00,231.0,231.0,3.12,3.32,,47.59359,-54.27349
2018-07-20 12:50:00+00:00,226.0,225.0,2.34,2.5,,47.59359,-54.27349
2018-07-20 13:00:00+00:00,229.0,229.0,2.54,2.69,,47.59359,-54.27349
2018-07-20 13:10:00+00:00,241.0,244.0,2.24,2.42,,47.59359,-54.27349
2018-07-20 13:20:00+00:00,263.0,268.0,1.83,2.01,,47.59359,-54.27349
